Vancouver, WA

10:01 PM PDT on April 27, 2017 (GMT -0700)
Pearson

Weather History for KVUO - October, 2012

Change the Weather History Date:

Wednesday, October 31, 2012

  Actual Average Record
Temperature  
Mean Temperature 57 °F 50 °F  
Max Temperature 59 °F 58 °F 72 °F (1954)
Min Temperature 55 °F 42 °F 22 °F (1995)
Degree Days  
Heating Degree Days 8    
Month to date heating degree days 236  
Since 1 July heating degree days 319  
Cooling Degree Days 0    
Month to date cooling degree days 0  
Year to date cooling degree days 398  
Growing Degree Days 7 (Base 50)    
Moisture  
Dew Point 53 °F    
Average Humidity 85    
Maximum Humidity 93    
Minimum Humidity 77    
Precipitation  
Precipitation 0.10 in 0.12 in 1.52 in (2015)
Month to date precipitation 4.43 3.07  
Year to date precipitation 31.16 26.46  
Snow  
Snow 0.00 in - - ()
Month to date snowfall 0.0  
Snow Depth 0.00 in    
Sea Level Pressure  
Sea Level Pressure 29.72 in    
Wind  
Wind Speed 6 mph (ESE)    
Max Wind Speed 13 mph    
Max Gust Speed 21 mph    
Visibility 9 miles    
Events Rain    
T = Trace of Precipitation, MM = Missing Value Source: NWS Daily Summary

Daily Weather History Graph

Daily Weather History Graph

Search for Another Location

Airport or City:

Trip Planner

Search our weather history database for the weather conditions in past years. The results will help you decide how hot, cold, wet, or windy it might be!

Date:

Astronomy

Oct. 31, 2012 Rise Set
Actual Time 7:49 AM PDT 5:57 PM PDT
Civil Twilight 7:18 AM PDT 6:28 PM PDT
Nautical Twilight 6:43 AM PDT 7:03 PM PDT
Astronomical Twilight 6:09 AM PDT 7:38 PM PDT
Moon 7:07 PM PDT (10/31) 9:41 AM PDT (10/31)
Length of Visible Light 11h 10m
Length of Day
10h 08m
Waning Gibbous, 97% of the Moon is Illuminated
Oct 31
Waning Gibbous
Nov 6
Last Quarter
Nov 13
New
Nov 20
First Quarter
Nov 28
Full

Hourly Weather History & Observations

Time (PDT) Temp. Dew Point Humidity Pressure Visibility Wind Dir Wind Speed Gust Speed Precip Events Conditions
12:53 AM 57.9 °F 55.0 °F 90% 29.77 in 10.0 mi East 5.8 mph - 0.00 in Rain Light Rain
1:53 AM 57.0 °F 55.0 °F 93% 29.75 in 10.0 mi ESE 4.6 mph - 0.00 in   Overcast
2:53 AM 57.0 °F 55.0 °F 93% 29.73 in 10.0 mi SSE 3.5 mph - N/A   Scattered Clouds
3:53 AM 57.0 °F 55.0 °F 93% 29.71 in 10.0 mi East 3.5 mph - N/A   Mostly Cloudy
4:53 AM 57.0 °F 55.0 °F 93% 29.69 in 10.0 mi Calm Calm - 0.00 in   Overcast
5:53 AM 57.0 °F 54.0 °F 89% 29.68 in 10.0 mi Calm Calm - 0.00 in Rain Light Rain
6:53 AM 55.9 °F 54.0 °F 93% 29.68 in 10.0 mi Calm Calm - 0.00 in Rain Light Rain
7:53 AM 57.0 °F 54.0 °F 89% 29.68 in 10.0 mi Calm Calm - 0.00 in Rain Light Rain
8:53 AM 57.0 °F 54.0 °F 89% 29.68 in 10.0 mi East 5.8 mph - 0.01 in Rain Light Rain
9:53 AM 57.0 °F 55.0 °F 93% 29.70 in 5.0 mi SE 5.8 mph - 0.01 in Rain Light Rain
10:53 AM 57.9 °F 55.0 °F 90% 29.70 in 5.0 mi SE 5.8 mph - 0.02 in Rain Light Rain
11:53 AM 57.9 °F 55.0 °F 90% 29.70 in 7.0 mi ESE 11.5 mph - 0.02 in Rain Light Rain
12:53 PM 59.0 °F 54.0 °F 83% 29.71 in 10.0 mi SSE 8.1 mph - 0.00 in Rain Light Rain
1:53 PM 57.9 °F 54.0 °F 87% 29.73 in 10.0 mi Variable 6.9 mph 16.1 mph 0.00 in Rain Light Rain
2:53 PM 59.0 °F 54.0 °F 83% 29.73 in 10.0 mi SE 8.1 mph - 0.00 in Rain Light Rain
3:53 PM 57.9 °F 51.1 °F 78% 29.75 in 10.0 mi SSE 9.2 mph 17.3 mph 0.00 in Rain Light Rain
4:53 PM 57.0 °F 51.1 °F 81% 29.74 in 10.0 mi SE 5.8 mph - 0.00 in   Overcast
5:53 PM 57.0 °F 50.0 °F 77% 29.73 in 10.0 mi East 5.8 mph - 0.00 in   Overcast
6:53 PM 57.0 °F 50.0 °F 77% 29.73 in 10.0 mi ESE 5.8 mph - N/A   Overcast
7:53 PM 55.9 °F 52.0 °F 87% 29.73 in 10.0 mi East 5.8 mph - N/A   Overcast
9:53 PM 55.0 °F 51.1 °F 86% 29.72 in 10.0 mi ESE 4.6 mph - 0.00 in   Overcast
10:53 PM 55.0 °F 51.1 °F 86% 29.73 in 10.0 mi ESE 9.2 mph - 0.02 in Rain Light Rain
11:53 PM 55.0 °F 50.0 °F 83% 29.72 in 10.0 mi ESE 6.9 mph - 0.02 in   Overcast